Fremont, MI

7:47 PM EST on November 17, 2019 (GMT -0500)
Fremont

Weather History for KFFX - September, 2019

Change the Weather History Date:

Sunday, September 15, 2019

  Actual Average (KMKG) Record (KMKG)
Temperature  
Mean Temperature 65 °F -  
Max Temperature 70 °F 69 °F 86 °F (1897)
Min Temperature 60 °F 50 °F 38 °F (1964)
Growing Degree Days 15 (Base 50)    
Moisture  
Dew Point 61 °F    
Average Humidity 84    
Maximum Humidity 95    
Minimum Humidity 65    
Precipitation  
Precipitation 0.00 in - - ()
Sea Level Pressure  
Sea Level Pressure 30.07 in    
Wind  
Wind Speed 4 mph ()    
Max Wind Speed 17 mph    
Max Gust Speed 23 mph    
Visibility 9.8 miles    
Events Rain    
Averages and records for this station are not official NWS values.
T = Trace of Precipitation, MM = Missing Value Source: Averaged Metar Reports

Daily Weather History Graph

Daily Weather History Graph

Search for Another Location

Airport or City:

Astronomy

Sep. 15, 2019 Rise Set
Actual Time 7:23 AM EDT 7:54 PM EDT
Civil Twilight 6:54 AM EDT 8:23 PM EDT
Nautical Twilight 6:20 AM EDT 8:56 PM EDT
Astronomical Twilight 5:45 AM EDT 9:31 PM EDT
Moon 9:00 PM EDT (9/15) 8:33 AM EDT (9/15)
Length of Visible Light 13h 28m
Length of Day
12h 31m
Full, 98% of the Moon is Illuminated
Sep 15
Full
Sep 21
Last Quarter
Sep 28
New
Oct 5
First Quarter
Oct 13
Full

Hourly Weather History & Observations

Time (EDT) Temp. Dew Point Humidity Pressure Visibility Wind Dir Wind Speed Gust Speed Precip Events Conditions
12:16 AM 60.6 °F 56.5 °F 86% 30.13 in 10.0 mi Calm Calm - N/A   Mostly Cloudy
12:35 AM 60.8 °F 56.3 °F 85% 30.13 in 10.0 mi Calm Calm - N/A   Mostly Cloudy
12:55 AM 60.8 °F 57.2 °F 88% 30.13 in 10.0 mi Calm Calm - N/A   Overcast
1:19 AM 60.6 °F 56.8 °F 87% 30.13 in 10.0 mi Calm Calm - N/A   Overcast
1:37 AM 61.0 °F 57.0 °F 87% 30.12 in 10.0 mi Calm Calm - N/A   Overcast
1:55 AM 61.5 °F 57.2 °F 86% 30.12 in 10.0 mi Calm Calm - N/A   Overcast
1:56 AM 61.5 °F 57.2 °F 86% 30.12 in 10.0 mi Calm Calm - N/A   Overcast
2:15 AM 62.2 °F 57.0 °F 83% 30.11 in 10.0 mi ESE 4.6 mph - N/A   Overcast
2:16 AM 62.4 °F 57.0 °F 82% 30.11 in 10.0 mi ESE 4.6 mph - N/A   Overcast
2:35 AM 62.6 °F 55.9 °F 79% 30.11 in 10.0 mi SSE 3.5 mph - N/A   Overcast
2:57 AM 62.6 °F 56.7 °F 81% 30.11 in 10.0 mi SSE 3.5 mph - N/A   Overcast
3:16 AM 61.7 °F 57.7 °F 87% 30.08 in 10.0 mi ESE 3.5 mph - N/A   Mostly Cloudy
3:35 AM 62.1 °F 58.1 °F 87% 30.08 in 10.0 mi SE 3.5 mph - N/A   Mostly Cloudy
3:55 AM 62.4 °F 58.5 °F 87% 30.08 in 10.0 mi Calm Calm - N/A   Overcast
3:56 AM 62.6 °F 58.5 °F 86% 30.08 in 10.0 mi SE 3.5 mph - N/A   Overcast
4:19 AM 62.8 °F 59.2 °F 88% 30.08 in 10.0 mi Calm Calm - N/A   Overcast
4:37 AM 63.3 °F 59.4 °F 87% 30.08 in 10.0 mi South 3.5 mph - N/A   Mostly Cloudy
4:55 AM 64.0 °F 60.1 °F 87% 30.08 in 10.0 mi South 4.6 mph - N/A   Mostly Cloudy
5:15 AM 65.3 °F 61.2 °F 86% 30.07 in 10.0 mi SSW 9.2 mph - N/A   Mostly Cloudy
5:35 AM 66.4 °F 61.2 °F 83% 30.07 in 10.0 mi SW 9.2 mph - N/A   Overcast
5:40 AM 66.6 °F 61.0 °F 82% 30.08 in 7.0 mi SW 11.5 mph - N/A Rain Heavy Rain
5:58 AM 65.8 °F 61.7 °F 86% 30.07 in 7.0 mi SSW 11.5 mph 19.6 mph N/A Rain Light Rain
6:16 AM 66.0 °F 61.7 °F 86% 30.07 in 10.0 mi SW 10.4 mph - N/A Rain Light Rain
6:35 AM 65.3 °F 61.7 °F 88% 30.08 in 4.0 mi SW 4.6 mph - N/A Rain Light Rain
6:55 AM 65.3 °F 61.7 °F 88% 30.08 in 7.0 mi WSW 3.5 mph - N/A Rain Heavy Rain
7:19 AM 64.4 °F 61.9 °F 92% 30.09 in 10.0 mi Calm Calm - N/A Rain Light Rain
7:37 AM 65.5 °F 61.2 °F 86% 30.09 in 10.0 mi WSW 6.9 mph - N/A Rain Rain
7:55 AM 65.7 °F 61.2 °F 85% 30.09 in 10.0 mi WSW 5.8 mph - N/A   Overcast
8:15 AM 66.0 °F 61.5 °F 85% 30.09 in 10.0 mi SW 12.7 mph - N/A   Overcast
8:35 AM 66.4 °F 61.7 °F 85% 30.10 in 10.0 mi SW 11.5 mph - N/A   Overcast
8:58 AM 67.1 °F 61.2 °F 81% 30.08 in 10.0 mi SW 11.5 mph - N/A   Mostly Cloudy
9:16 AM 67.5 °F 59.5 °F 76% 30.09 in 10.0 mi SW 10.4 mph - N/A   Mostly Cloudy
9:35 AM 67.6 °F 59.7 °F 76% 30.10 in 10.0 mi SW 10.4 mph 18.4 mph N/A   Overcast
9:55 AM 67.5 °F 58.5 °F 73% 30.10 in 10.0 mi SW 10.4 mph - N/A   Overcast
10:19 AM 67.5 °F 59.0 °F 74% 30.09 in 10.0 mi SW 6.9 mph - N/A   Mostly Cloudy
10:37 AM 67.5 °F 61.2 °F 80% 30.09 in 10.0 mi SSW 6.9 mph - N/A   Drizzle
10:55 AM 68.2 °F 61.3 °F 79% 30.08 in 10.0 mi SSW 8.1 mph - N/A   Mostly Cloudy
10:56 AM 68.2 °F 61.2 °F 78% 30.08 in 10.0 mi SSW 9.2 mph - N/A   Mostly Cloudy
11:15 AM 68.9 °F 57.7 °F 68% 30.07 in 10.0 mi SSW 17.3 mph 23.0 mph N/A   Scattered Clouds
11:16 AM 68.9 °F 57.7 °F 68% 30.07 in 10.0 mi SSW 17.3 mph 23.0 mph N/A   Scattered Clouds
11:35 AM 68.5 °F 57.9 °F 69% 30.08 in 10.0 mi SSW 11.5 mph 19.6 mph N/A   Mostly Cloudy
11:40 AM 68.5 °F 58.3 °F 70% 30.08 in 10.0 mi SW 10.4 mph 19.6 mph N/A   Mostly Cloudy
11:58 AM 68.9 °F 59.0 °F 71% 30.08 in 10.0 mi SW 10.4 mph - N/A   Overcast
12:16 PM 70.0 °F 58.5 °F 67% 30.08 in 10.0 mi SW 15.0 mph - N/A   Overcast
12:35 PM 68.9 °F 57.4 °F 67% 30.08 in 10.0 mi SW 12.7 mph 20.7 mph N/A   Overcast
12:36 PM 68.7 °F 57.4 °F 67% 30.08 in 10.0 mi SW 11.5 mph 20.7 mph N/A   Overcast
12:55 PM 69.3 °F 57.4 °F 66% 30.07 in 10.0 mi SW 8.1 mph - N/A   Overcast
12:56 PM 69.4 °F 57.4 °F 65% 30.07 in 10.0 mi SSW 9.2 mph - N/A   Overcast
1:19 PM 68.7 °F 57.4 °F 67% 30.07 in 10.0 mi SW 10.4 mph - N/A   Overcast
1:36 PM 68.0 °F 58.5 °F 71% 30.07 in 10.0 mi SSW 8.1 mph 16.1 mph N/A   Overcast
1:55 PM 68.2 °F 61.0 °F 78% 30.06 in 10.0 mi SSW 6.9 mph - N/A   Overcast
2:15 PM 68.2 °F 62.8 °F 83% 30.05 in 10.0 mi SSW 5.8 mph - N/A   Overcast
2:39 PM 68.2 °F 63.3 °F 84% 30.05 in 10.0 mi SSW 6.9 mph - N/A   Overcast
3:15 PM 68.9 °F 64.0 °F 84% 30.04 in 10.0 mi South 3.5 mph - N/A   Overcast
3:16 PM 68.9 °F 64.0 °F 84% 30.04 in 10.0 mi South 3.5 mph - N/A   Overcast
3:35 PM 68.9 °F 64.2 °F 85% 30.04 in 10.0 mi SSE 3.5 mph - N/A   Overcast
3:36 PM 68.9 °F 64.2 °F 85% 30.04 in 10.0 mi Calm Calm - N/A   Overcast
3:55 PM 68.9 °F 64.4 °F 86% 30.03 in 10.0 mi Calm Calm - N/A   Overcast
4:18 PM 69.1 °F 64.8 °F 86% 30.02 in 10.0 mi Calm Calm - N/A   Overcast
4:36 PM 68.9 °F 64.9 °F 87% 30.02 in 10.0 mi SE 3.5 mph - N/A   Overcast
4:55 PM 68.5 °F 65.3 °F 89% 30.02 in 10.0 mi South 3.5 mph - N/A   Overcast
5:15 PM 68.9 °F 64.9 °F 87% 30.02 in 10.0 mi SSW 8.1 mph - N/A   Overcast
5:39 PM 68.5 °F 64.4 °F 87% 30.02 in 10.0 mi SW 6.9 mph - N/A   Overcast
5:57 PM 68.4 °F 64.6 °F 88% 30.02 in 10.0 mi SW 6.9 mph - N/A   Overcast
6:15 PM 68.4 °F 64.4 °F 87% 30.02 in 10.0 mi SSW 6.9 mph - N/A   Overcast
6:16 PM 68.4 °F 64.2 °F 87% 30.02 in 10.0 mi SSW 6.9 mph - N/A   Overcast
6:35 PM 68.5 °F 64.4 °F 87% 30.03 in 7.0 mi SW 4.6 mph - N/A   Overcast
6:36 PM 68.5 °F 64.4 °F 87% 30.03 in 7.0 mi SW 3.5 mph - N/A   Overcast
6:55 PM 68.4 °F 64.4 °F 87% 30.03 in 10.0 mi Calm Calm - N/A   Overcast
7:00 PM 68.4 °F 64.4 °F 87% 30.03 in 10.0 mi Calm Calm - N/A   Overcast
7:17 PM 68.2 °F 64.4 °F 88% 30.03 in 10.0 mi Calm Calm - N/A   Overcast
7:36 PM 68.0 °F 64.6 °F 89% 30.03 in 10.0 mi Calm Calm - N/A   Overcast
7:55 PM 67.6 °F 64.6 °F 90% 30.03 in 10.0 mi Calm Calm - N/A   Overcast
8:15 PM 67.5 °F 64.6 °F 90% 30.04 in 10.0 mi Calm Calm - N/A   Overcast
8:16 PM 67.5 °F 64.6 °F 90% 30.04 in 10.0 mi Calm Calm - N/A   Overcast
8:39 PM 67.1 °F 64.9 °F 93% 30.04 in 10.0 mi Calm Calm - N/A   Overcast
8:57 PM 67.1 °F 65.3 °F 94% 30.04 in 10.0 mi Calm Calm - N/A   Overcast
9:15 PM 67.1 °F 65.3 °F 94% 30.05 in 10.0 mi Calm Calm - N/A   Overcast
9:35 PM 66.9 °F 65.3 °F 95% 30.05 in 10.0 mi Calm Calm - N/A   Overcast
9:59 PM 67.1 °F 64.8 °F 92% 30.04 in 10.0 mi ESE 4.6 mph - N/A   Overcast
10:18 PM 67.1 °F 64.6 °F 92% 30.03 in 10.0 mi ESE 3.5 mph - N/A   Overcast
10:36 PM 67.1 °F 64.4 °F 91% 30.04 in 10.0 mi Calm Calm - N/A   Overcast
10:55 PM 67.1 °F 64.4 °F 91% 30.04 in 10.0 mi Calm Calm - N/A   Overcast
11:15 PM 67.1 °F 64.8 °F 92% 30.05 in 10.0 mi Calm Calm - N/A   Overcast
11:39 PM 66.6 °F 64.8 °F 94% 30.04 in 10.0 mi Calm Calm - N/A   Overcast
11:57 PM 66.6 °F 64.9 °F 95% 30.05 in 10.0 mi Calm Calm - N/A   Overcast